Weather History for KMYP - August, 2013

Change the Weather History Date:

Tuesday, August 6, 2013

  Actual Average (KGUC) Record (KGUC)
Temperature  
Mean Temperature 48 °F -  
Max Temperature 55 °F 76 °F 84 °F (2003)
Min Temperature 41 °F 43 °F 35 °F (1996)
Degree Days  
Heating Degree Days 17    
Moisture  
Dew Point 39 °F    
Average Humidity 79    
Maximum Humidity 100    
Minimum Humidity 51    
Precipitation  
Precipitation 0.00 in - - ()
Sea Level Pressure  
Sea Level Pressure 30.69 in    
Wind  
Wind Speed 13 mph (West)    
Max Wind Speed 23 mph    
Max Gust Speed 21 mph    
Averages and records for this station are not official NWS values.
T = Trace of Precipitation, MM = Missing Value Source: NWS Daily Summary

Daily Weather History Graph

Daily Weather History Graph

Search for Another Location

Airport or City:

Trip Planner

Search our weather history database for the weather conditions in past years. The results will help you decide how hot, cold, wet, or windy it might be!

Date:

Astronomy

Aug. 06, 2013 Rise Set
Actual Time 6:11 AM MDT 8:09 PM MDT
Civil Twilight 5:42 AM MDT 8:38 PM MDT
Nautical Twilight 5:07 AM MDT 9:13 PM MDT
Astronomical Twilight 4:29 AM MDT 9:51 PM MDT
Moon 6:04 AM MDT (8/6) 7:47 PM MDT (8/6)
Length of Visible Light 14h 55m
Length of Day
13h 57m
Waning Crescent, 0% of the Moon is Illuminated
Aug 6
Waning Crescent
Aug 6
New
Aug 14
First Quarter
Aug 20
Full
Aug 28
Last Quarter

Hourly Weather History & Observations

Time (MDT) Temp. Windchill Dew Point Humidity Pressure Visibility Wind Dir Wind Speed Gust Speed Precip Events Conditions
12:15 AM 44.6 °F 38.8 °F 39.2 °F 81% 30.72 in - SSW 11.5 mph - N/A   Overcast
12:35 AM 44.6 °F 39.7 °F 39.2 °F 81% 30.72 in - SSW 9.2 mph - N/A   Mostly Cloudy
12:55 AM 44.6 °F 39.2 °F 39.2 °F 81% 30.72 in - SSW 10.4 mph - N/A   Mostly Cloudy
1:15 AM 44.6 °F 39.7 °F 39.2 °F 81% 30.71 in - SW 9.2 mph - N/A   Overcast
1:35 AM 44.6 °F 38.1 °F 39.2 °F 81% 30.71 in - SW 13.8 mph - N/A   Overcast
1:55 AM 44.6 °F 37.8 °F 39.2 °F 81% 30.71 in - SW 15.0 mph - N/A   Overcast
2:15 AM 44.6 °F 37.8 °F 39.2 °F 81% 30.70 in - SW 15.0 mph - N/A   Overcast
2:35 AM 42.8 °F 35.4 °F 39.2 °F 87% 30.69 in - SW 15.0 mph - N/A   Overcast
2:55 AM 42.8 °F 35.4 °F 37.4 °F 81% 30.68 in - SW 15.0 mph - N/A   Scattered Clouds
3:15 AM 42.8 °F 35.1 °F 37.4 °F 81% 30.67 in - SW 16.1 mph - N/A   Clear
3:35 AM 42.8 °F 34.3 °F 37.4 °F 81% 30.67 in - SW 19.6 mph - N/A   Unknown
3:55 AM 42.8 °F 34.5 °F 37.4 °F 81% 30.67 in - SW 18.4 mph - N/A   Unknown
4:15 AM 42.8 °F 34.0 °F 37.4 °F 81% 30.67 in - WSW 20.7 mph - N/A   Clear
4:35 AM 42.8 °F 34.3 °F 37.4 °F 81% 30.67 in - WSW 19.6 mph - N/A   Clear
4:55 AM 42.8 °F 35.4 °F 37.4 °F 81% 30.67 in - WSW 15.0 mph - N/A   Unknown
5:15 AM 42.8 °F 34.8 °F 37.4 °F 81% 30.67 in - WSW 17.3 mph - N/A   Clear
5:35 AM 42.8 °F 34.5 °F 37.4 °F 81% 30.67 in - West 18.4 mph - N/A   Clear
5:55 AM 42.8 °F 34.3 °F 37.4 °F 81% 30.67 in - WSW 19.6 mph - N/A   Mostly Cloudy
6:15 AM 44.6 °F 35.9 °F 37.4 °F 76% 30.67 in - West 23.0 mph - N/A   Overcast
6:35 AM 42.8 °F 34.0 °F 37.4 °F 81% 30.67 in - West 20.7 mph - N/A   Overcast
6:55 AM 42.8 °F 35.8 °F 37.4 °F 81% 30.68 in - West 13.8 mph - N/A   Scattered Clouds
7:15 AM 44.6 °F 38.1 °F 37.4 °F 76% 30.68 in - West 13.8 mph - N/A   Clear
7:35 AM 44.6 °F 37.8 °F 37.4 °F 76% 30.68 in - West 15.0 mph - N/A   Clear
7:55 AM 44.6 °F 38.8 °F 37.4 °F 76% 30.69 in - West 11.5 mph - N/A   Clear
8:15 AM 44.6 °F 38.4 °F 39.2 °F 81% 30.70 in - West 12.7 mph - N/A   Clear
8:35 AM 46.4 °F 41.9 °F 41.0 °F 81% 30.70 in - SW 9.2 mph - N/A   Clear
8:55 AM 46.4 °F 41.9 °F 41.0 °F 81% 30.70 in - WSW 9.2 mph - N/A   Clear
9:15 AM 48.2 °F - 41.0 °F 76% 30.71 in - West 9.2 mph - N/A   Clear
9:35 AM 50.0 °F - 42.8 °F 76% 30.71 in - WSW 12.7 mph 16.1 mph N/A   Clear
9:55 AM 50.0 °F - 42.8 °F 76% 30.71 in - WSW 8.1 mph - N/A   Clear
10:15 AM 50.0 °F - 42.8 °F 76% 30.71 in - WSW 11.5 mph - N/A   Clear
10:35 AM 51.8 °F - 44.6 °F 76% 30.71 in - SW 12.7 mph 18.4 mph N/A   Clear
10:55 AM 51.8 °F - 42.8 °F 71% 30.71 in - SW 10.4 mph - N/A   Clear
11:15 AM 53.6 °F - 44.6 °F 72% 30.71 in - West 9.2 mph 16.1 mph N/A   Clear
11:35 AM 53.6 °F - 44.6 °F 72% 30.71 in - SW 12.7 mph - N/A   Clear
11:55 AM 55.4 °F - 44.6 °F 67% 30.71 in - SW 10.4 mph - N/A   Scattered Clouds
12:15 PM 55.4 °F - 44.6 °F 67% 30.71 in - SW 9.2 mph - N/A   Clear
12:35 PM 55.4 °F - 44.6 °F 67% 30.70 in - East 5.8 mph 11.5 mph N/A   Scattered Clouds
12:55 PM 53.6 °F - 35.6 °F 51% 30.69 in - ENE 15.0 mph 19.6 mph N/A   Overcast
1:15 PM 48.2 °F - 35.6 °F 62% 30.68 in - ENE 23.0 mph - N/A Thunderstorm Thunderstorm
1:35 PM 46.4 °F 41.9 °F 33.8 °F 62% 30.70 in - NE 9.2 mph - N/A Thunderstorm Thunderstorm
1:55 PM 46.4 °F 39.8 °F 35.6 °F 66% 30.69 in - NE 16.1 mph - N/A Thunderstorm Thunderstorm
2:15 PM 46.4 °F - 35.6 °F 66% 30.68 in - North - - N/A Thunderstorm Thunderstorm
2:35 PM 44.6 °F 38.1 °F 37.4 °F 76% 30.70 in - NNE 13.8 mph - N/A Thunderstorm Thunderstorm
2:55 PM 44.6 °F 37.4 °F 35.6 °F 71% 30.71 in - NNE 16.1 mph - N/A Thunderstorm Thunderstorm
3:15 PM 44.6 °F 37.2 °F 37.4 °F 76% 30.70 in - NE 17.3 mph - N/A   Overcast
3:35 PM 44.6 °F 37.8 °F 37.4 °F 76% 30.71 in - North 15.0 mph 20.7 mph N/A   Overcast
3:55 PM 44.6 °F 40.7 °F 35.6 °F 71% 30.71 in - North 6.9 mph - N/A Thunderstorm Thunderstorm
4:15 PM 46.4 °F 42.9 °F 35.6 °F 66% 30.70 in - WSW 6.9 mph - N/A   Overcast
4:35 PM 44.6 °F 38.4 °F 37.4 °F 76% 30.71 in - WSW 12.7 mph - N/A   Overcast
4:55 PM 44.6 °F 40.7 °F 37.4 °F 76% 30.72 in - WNW 6.9 mph - N/A Thunderstorm Thunderstorm
5:15 PM 44.6 °F 42.2 °F 37.4 °F 76% 30.72 in - North 4.6 mph - N/A   Overcast
5:35 PM 44.6 °F 40.2 °F 37.4 °F 76% 30.71 in - North 8.1 mph - N/A   Overcast
5:55 PM 42.8 °F 37.0 °F 39.2 °F 87% 30.71 in - North 10.4 mph - N/A   Unknown
6:15 PM 44.6 °F 38.8 °F 37.4 °F 76% 30.70 in - North 11.5 mph - N/A   Overcast
6:35 PM 44.6 °F 38.8 °F 37.4 °F 76% 30.70 in - NE 11.5 mph - N/A   Overcast
6:55 PM 42.8 °F 37.5 °F 39.2 °F 87% 30.71 in - ENE 9.2 mph - N/A   Unknown
7:15 PM 42.8 °F 35.1 °F 41.0 °F 93% 30.69 in - ENE 16.1 mph - N/A   Overcast
7:35 PM 42.8 °F 34.8 °F 41.0 °F 93% 30.68 in - ENE 17.3 mph - N/A   Overcast
7:55 PM 42.8 °F 35.4 °F 41.0 °F 93% 30.69 in - ENE 15.0 mph - N/A Thunderstorm Thunderstorm
8:15 PM 42.8 °F 35.4 °F 41.0 °F 93% 30.69 in - ENE 15.0 mph - N/A   Overcast
8:35 PM 42.8 °F 34.5 °F 41.0 °F 93% 30.69 in - ENE 18.4 mph - N/A   Overcast
8:55 PM 42.8 °F 34.8 °F 41.0 °F 93% 30.69 in - ENE 17.3 mph - N/A   Overcast
9:15 PM 41.0 °F 32.5 °F 41.0 °F 100% 30.69 in - ENE 17.3 mph - N/A   Overcast
9:35 PM 41.0 °F 32.2 °F 39.2 °F 93% 30.69 in - ENE 18.4 mph - N/A   Overcast
9:55 PM 41.0 °F 33.1 °F 39.2 °F 93% 30.69 in - ENE 15.0 mph - N/A   Overcast
10:15 PM 41.0 °F 32.8 °F 39.2 °F 93% 30.68 in - East 16.1 mph - N/A   Unknown
10:35 PM 41.0 °F 32.2 °F 39.2 °F 93% 30.68 in - East 18.4 mph - N/A   Unknown
10:55 PM 41.0 °F 33.5 °F 39.2 °F 93% 30.68 in - ENE 13.8 mph - N/A   Unknown
11:15 PM 41.0 °F 33.1 °F 37.4 °F 87% 30.68 in - East 15.0 mph - N/A   Mostly Cloudy
11:35 PM 42.8 °F 35.8 °F 35.6 °F 76% 30.69 in - East 13.8 mph - N/A   Mostly Cloudy
11:55 PM 42.8 °F 37.0 °F 35.6 °F 76% 30.69 in - East 10.4 mph - N/A   Overcast